Weather History for Beaufort, SC

Change the Weather History Date:

Sunday, September 30, 2012

  Actual Average (KNBC) Record (KNBC)
Temperature  
Mean Temperature 74 °F -  
Max Temperature 78 °F 80 °F 94 °F (1934)
Min Temperature 69 °F 64 °F 43 °F (1967)
Cooling Degree Days 8    
Growing Degree Days 24 (Base 50)    
Moisture  
Dew Point 69 °F    
Average Humidity 84    
Maximum Humidity 94    
Minimum Humidity 65    
Precipitation  
Precipitation 0.00 in - - ()
Sea Level Pressure  
Sea Level Pressure 29.86 in    
Wind  
Wind Speed 2 mph (SSW)    
Max Wind Speed 7 mph    
Max Gust Speed -    
Visibility 7 miles    
Events Rain    
Averages and records for this station are not official NWS values.
T = Trace of Precipitation, MM = Missing Value Source: NWS Daily Summary

Daily Weather History Graph

Daily Weather History Graph

Search for Another Location

Airport:

Trip Planner

Search our weather history database for the weather conditions in past years. The results will help you decide how hot, cold, wet, or windy it might be!

Date:

Astronomy

Sep. 30, 2012 Rise Set
Actual Time 7:16 AM EDT 7:07 PM EDT
Civil Twilight 6:51 AM EDT 7:32 PM EDT
Nautical Twilight 6:23 AM EDT 8:00 PM EDT
Astronomical Twilight 5:54 AM EDT 8:29 PM EDT
Moon 7:17 PM EDT (9/30) 7:40 AM EDT (9/30)
Length of Visible Light 12h 40m
Length of Day
11h 51m
Full, 100% of the Moon is Illuminated
Sep 30
Full
Oct 8
Last Quarter
Oct 15
New
Oct 21
First Quarter
Oct 29
Full

Hourly Weather History & Observations

Time (EDT) Temp. Dew Point Humidity Pressure Visibility Wind Dir Wind Speed Gust Speed Precip Events Conditions
12:15 AM 71.6 °F 69.8 °F 94% 29.91 in 7.0 mi NNE 6.9 mph - N/A   Mostly Cloudy
12:35 AM 71.6 °F 68.0 °F 88% 29.90 in 7.0 mi NNE 3.5 mph - N/A   Scattered Clouds
12:55 AM 71.6 °F 66.2 °F 83% 29.89 in 10.0 mi NNE 3.5 mph - N/A   Clear
1:15 AM 71.6 °F 66.2 °F 83% 29.89 in 7.0 mi East 3.5 mph - N/A   Clear
1:55 AM 69.8 °F 66.2 °F 88% 29.88 in 7.0 mi Calm Calm - N/A   Clear
2:15 AM 69.8 °F 68.0 °F 94% 29.88 in 10.0 mi Calm Calm - N/A   Clear
2:35 AM 69.8 °F 68.0 °F 94% 29.88 in 7.0 mi Calm Calm - N/A   Clear
2:55 AM 69.8 °F 68.0 °F 94% 29.88 in 10.0 mi Calm Calm - N/A   Clear
3:15 AM 69.8 °F 68.0 °F 94% 29.88 in 7.0 mi Calm Calm - N/A   Clear
3:35 AM 69.8 °F 68.0 °F 94% 29.87 in 7.0 mi Calm Calm - N/A   Clear
3:55 AM 69.8 °F 68.0 °F 94% 29.87 in 7.0 mi Calm Calm - N/A   Clear
4:15 AM 69.8 °F 68.0 °F 94% 29.87 in 7.0 mi Calm Calm - N/A   Clear
4:35 AM 69.8 °F 68.0 °F 94% 29.86 in 7.0 mi SSW 3.5 mph - N/A   Mostly Cloudy
4:55 AM 69.8 °F 68.0 °F 94% 29.86 in 7.0 mi Calm Calm - N/A   Overcast
5:15 AM 69.8 °F 68.0 °F 94% 29.86 in 7.0 mi Calm Calm - N/A   Overcast
5:55 AM 71.6 °F 69.8 °F 94% 29.86 in 7.0 mi SW 3.5 mph - N/A   Overcast
6:15 AM 71.6 °F 69.8 °F 94% 29.86 in 7.0 mi SSW 4.6 mph - N/A   Overcast
6:35 AM 71.6 °F 69.8 °F 94% 29.86 in 7.0 mi SW 4.6 mph - N/A   Overcast
6:55 AM 71.6 °F 69.8 °F 94% 29.86 in 7.0 mi SW 3.5 mph - N/A   Overcast
7:15 AM 71.6 °F 69.8 °F 94% 29.86 in 7.0 mi SW 5.8 mph - N/A   Mostly Cloudy
7:55 AM 71.6 °F 69.8 °F 94% 29.87 in 5.0 mi Calm Calm - N/A   Mostly Cloudy
8:15 AM 71.6 °F 69.8 °F 94% 29.87 in 5.0 mi Calm Calm - N/A   Overcast
8:35 AM 73.4 °F 69.8 °F 88% 29.88 in 7.0 mi Calm Calm - N/A   Scattered Clouds
8:55 AM 73.4 °F 69.8 °F 88% 29.88 in 7.0 mi Calm Calm - N/A   Mostly Cloudy
9:15 AM 73.4 °F 69.8 °F 88% 29.88 in 7.0 mi WSW 3.5 mph - N/A   Overcast
9:35 AM 73.4 °F 69.8 °F 88% 29.89 in 7.0 mi WSW 3.5 mph - N/A   Overcast
9:55 AM 73.4 °F 69.8 °F 88% 29.89 in 7.0 mi Calm Calm - N/A   Overcast
10:15 AM 73.4 °F 69.8 °F 88% 29.89 in 7.0 mi Calm Calm - N/A   Overcast
10:55 AM 77.0 °F 66.2 °F 69% 29.89 in 7.0 mi Calm Calm - N/A   Overcast
11:15 AM 77.0 °F 66.2 °F 69% 29.89 in 7.0 mi Calm Calm - N/A   Overcast
11:35 AM 77.0 °F 64.4 °F 65% 29.89 in 5.0 mi Calm Calm - N/A   Haze
11:55 AM 77.0 °F 66.2 °F 69% 29.88 in 7.0 mi Calm Calm - N/A   Mostly Cloudy
12:15 PM 77.0 °F 66.2 °F 69% 29.88 in 7.0 mi Calm Calm - N/A   Overcast
12:35 PM 77.0 °F 68.0 °F 74% 29.88 in 7.0 mi Calm Calm - N/A   Overcast
12:55 PM 78.8 °F 68.0 °F 69% 29.88 in 7.0 mi Calm Calm - N/A   Overcast
1:15 PM 78.8 °F 66.2 °F 65% 29.88 in 7.0 mi Calm Calm - N/A   Mostly Cloudy
1:35 PM 78.8 °F 68.0 °F 69% 29.86 in 7.0 mi Calm Calm - N/A   Mostly Cloudy
1:55 PM 78.8 °F 68.0 °F 69% 29.86 in 7.0 mi Calm Calm - N/A   Overcast
2:15 PM 78.8 °F 68.0 °F 69% 29.85 in 7.0 mi Calm Calm - N/A   Overcast
2:35 PM 78.8 °F 66.2 °F 65% 29.85 in 7.0 mi SE 3.5 mph - N/A   Overcast
2:55 PM 78.8 °F 68.0 °F 69% 29.85 in 7.0 mi Calm Calm - N/A   Overcast
3:15 PM 78.8 °F 68.0 °F 69% 29.84 in 7.0 mi Calm Calm - N/A   Overcast
3:35 PM 78.8 °F 68.0 °F 69% 29.83 in 7.0 mi Calm Calm - N/A   Overcast
4:15 PM 78.8 °F 66.2 °F 65% 29.83 in 7.0 mi Calm Calm - N/A   Overcast
4:35 PM 78.8 °F 66.2 °F 65% 29.83 in 7.0 mi Calm Calm - N/A   Overcast
4:55 PM 78.8 °F 68.0 °F 69% 29.83 in 7.0 mi Calm Calm - N/A   Overcast
5:15 PM 78.8 °F 68.0 °F 69% 29.82 in 7.0 mi ESE 3.5 mph - N/A   Overcast
5:35 PM 77.0 °F 68.0 °F 74% 29.82 in 7.0 mi Calm Calm - N/A   Overcast
5:55 PM 77.0 °F 68.0 °F 74% 29.83 in 7.0 mi Calm Calm - N/A   Overcast
6:15 PM 77.0 °F 68.0 °F 74% 29.83 in 7.0 mi Calm Calm - N/A   Overcast
6:35 PM 77.0 °F 68.0 °F 74% 29.83 in 7.0 mi Calm Calm - N/A   Overcast
6:55 PM 77.0 °F 68.0 °F 74% 29.83 in 10.0 mi Calm Calm - N/A Rain Rain
7:15 PM 73.4 °F 69.8 °F 88% 29.83 in 7.0 mi Calm Calm - N/A Rain Light Rain
7:35 PM 73.4 °F 71.6 °F 94% 29.83 in 5.0 mi Calm Calm - N/A Rain Rain
7:55 PM 73.4 °F 71.6 °F 94% 29.83 in 10.0 mi Calm Calm - N/A Rain Light Rain
8:15 PM 73.4 °F 71.6 °F 94% 29.83 in 10.0 mi Calm Calm - N/A Rain Light Rain
8:35 PM 73.4 °F 71.6 °F 94% 29.83 in 3.0 mi Calm Calm - N/A Rain Rain
9:15 PM 73.4 °F 71.6 °F 94% 29.84 in 7.0 mi Calm Calm - N/A   Overcast
9:35 PM 73.4 °F 71.6 °F 94% 29.84 in 5.0 mi Calm Calm - N/A   Overcast
10:15 PM 73.4 °F 71.6 °F 94% 29.85 in 3.0 mi Calm Calm - N/A   Mostly Cloudy
10:35 PM 73.4 °F 71.6 °F 94% 29.85 in 3.0 mi Calm Calm - N/A   Scattered Clouds
10:55 PM 73.4 °F 71.6 °F 94% 29.85 in 5.0 mi Calm Calm - N/A   Scattered Clouds
11:15 PM 73.4 °F 71.6 °F 94% 29.84 in 5.0 mi Calm Calm - N/A   Mostly Cloudy
11:35 PM 73.4 °F 71.6 °F 94% 29.84 in 5.0 mi Calm Calm - N/A   Mostly Cloudy